Regional Weather Roundup
Issued by NWS

Home | Current Version | Previous Version | Graphics & Text | Print | Product List | Glossary Off
Versions: 1 2 3 4 5 6 7 8 9 10 11 12 13 14 15 16 17 18 19 20 21 22 23 24 25 26 27 28 29 30 31 32 33 34 35 36 37 38 39 40 41 42 43 44 45 46 47 48 49 50

000
ASUS43 KMKX 241000
RWRWI

WISCONSIN REGIONAL WEATHER ROUNDUP
NATIONAL WEATHER SERVICE MILWAUKEE/SULLIVAN WI
500 AM CDT SUN SEP 24 2017

NOTE: "FAIR" INDICATES FEW OR NO CLOUDS BELOW 12,000 FEET WITH NO
SIGNIFICANT WEATHER AND/OR OBSTRUCTIONS TO VISIBILITY.

WIZ001-002-006>008-014>016-023>028-241100-
NORTHWEST WISCONSIN

CITY           SKY/WX    TMP DP  RH WIND       PRES   REMARKS
SUPERIOR ARPT  MOCLDY    65  64  96 E7        29.95F
ASHLAND        FOG       60  60 100 CALM      29.97S VSB 1/4
HAYWARD        PTCLDY    71  63  75 S5        29.99R
SIREN          PTCLDY    68  65  92 S6        29.95S
CUMBERLAND     CLEAR     68  63  83 SE6       29.98S
RICE LAKE      CLEAR     67  64  90 CALM      30.00S
CHETEK         CLEAR     69  65  89 SE3       29.99S
LADYSMITH      CLEAR     70  63  78 SE6       30.03S
EAU CLAIRE     NOT AVBL
MENOMONIE      CLEAR     67  64  90 E6        29.98S
NEW RICHMOND   CLOUDY    70  61  72 S8        29.97R
OSCEOLA        CLOUDY    70  63  78 CALM      29.97S
$$

WIZ003>005-009-010-017-018-241100-
NORTH CENTRAL WISCONSIN

CITY           SKY/WX    TMP DP  RH WIND       PRES   REMARKS
MANITOWISH WTR NOT AVBL
ARBOR VITAE    CLEAR     72  65  79 S5        30.06S
WOODRUFF       CLEAR     72  65  79 S5        30.06S
RHINELANDER    CLEAR     65  63  93 CALM      30.08S
EAGLE RIVER    PTCLDY    65  63  91 CALM      30.07S
LAND O LAKES   CLOUDY    62  62  99 CALM      30.09S FOG
PHILLIPS       PTCLDY    69  64  83 S6        30.04S
TOMAHAWK       CLEAR     62  60  96 CALM      30.07S
MEDFORD        CLEAR     65  61  88 S5        30.05F
MERRILL        CLEAR     60  60 100 E3        30.07S FOG
$$

WIZ029-030-035-036-043>047-241100-
CENTRAL WISCONSIN

CITY           SKY/WX    TMP DP  RH WIND       PRES   REMARKS
WAUSAU         CLEAR     65  63  93 E5        30.05S
MOSINEE        CLEAR     66  63  88 SE3       30.07S
MARSHFIELD     CLEAR     65  60  84 S6        30.05S
STEVENS POINT  CLEAR     62  62 100 CALM      30.06S
WAUPACA        CLEAR     66  66  98 CALM      30.06S
WAUTOMA        CLEAR     62  61  96 CALM      30.07S
WISC RAPIDS    CLEAR     67  63  87 S3        30.06S
CAMP DOUGLAS   NOT AVBL
$$

WIZ011>013-019>022-031-037>040-048>050-241100-
NORTHEAST WISCONSIN

CITY           SKY/WX    TMP DP  RH WIND       PRES   REMARKS
ANTIGO         CLEAR     66  64  93 SW3       30.08F
SHAWANO        CLEAR     69  65  88 CALM      30.06S
OCONTO           N/A     63  63  99 CALM      30.06S
STURGEON BAY   CLEAR     72  64  76 S9        30.07S
GREEN BAY      CLEAR     70  65  84 S5        30.07R
MANITOWOC      CLEAR     71  66  84 S6        30.07F
APPLETON       CLEAR     68  61  77 S3        30.06S
CLINTONVILLE   NOT AVBL
OSHKOSH        CLEAR     67  64  90 S6        30.06S
$$

WIZ032>034-041-042-053>061-241100-
SOUTHWEST WISCONSIN

CITY           SKY/WX    TMP DP  RH WIND       PRES   REMARKS
LA CROSSE      CLEAR     70  65  84 SE3       30.00F
SPARTA         CLEAR     59  59  99 CALM      30.04S
VIROQUA        CLEAR     68  64  88 SE6       30.05S
BOSCOBEL       CLEAR     62  61  96 CALM      30.04S FOG
PRAIRIE DU CHI CLEAR     66  62  89 SE5       30.03R
PLATTEVILLE    CLEAR     69  65  86 E6        30.05S
$$

WIZ056-057-062-063-064-067-068-241100-
SOUTH CENTRAL WISCONSIN

CITY           SKY/WX    TMP DP  RH WIND       PRES   REMARKS
REEDSBURG      CLEAR     63  63 100 CALM      30.05S
BARABOO/DELLS  CLEAR     68  61  79 S3        30.06S
LONE ROCK      NOT AVBL
MINERAL POINT  CLEAR     70  64  83 SE5       30.06S
MADISON        CLEAR     71  66  84 S5        30.05S
MIDDLETON      CLEAR     64  62  93 CALM      30.06F
WATERTOWN      CLEAR     66  65  98 CALM      30.06S
MONROE         CLEAR     70  63  78 SE7       30.06S
JANESVILLE     CLEAR     66  66 100 CALM      30.05F
$$

WIZ051-052-058>065-066-070>072-241100-
SOUTHEAST WISCONSIN

CITY           SKY/WX    TMP DP  RH WIND       PRES   REMARKS
MILWAUKEE      CLEAR     71  67  87 SE5       30.07S
WAUKESHA       CLEAR     64  63  94 CALM      30.09F
MILWAUKEE/TIMM CLEAR     66  61  82 CALM      30.08S
RACINE         CLEAR     70  69  97 CALM      30.09S
BURLINGTON     FOG       61  61 100 CALM      30.08S VSB 1/4
KENOSHA        CLEAR     68  64  87 CALM      30.08S
FOND DU LAC    CLEAR     68  62  81 CALM      30.07S
SHEBOYGAN      CLEAR     62  62 100 CALM      30.07F FOG
WEST BEND        N/A     61  61 100 CALM      30.08S FOG
JUNEAU         CLEAR     68  64  86 CALM      30.08F
$$

LSZ147-162-241100-
LAKE SUPERIOR

STATION/POSITION TIME  TEMP    WIND        PRES    WAVE
                       AIR SEA DIR/SP/G            HT/PER
                 (UTC) (F)     (DEG/KT/KT) (MB)    (FT/S)
W MID LAKE BUOY  0850   59 55   60/  4/  6 1014.6S   0
DEVILS ISLAND    0900   63      50/  9/  9 1014.6S
SAXON HARBOR     0930   76     190/  5/ 10 1014.2S
$$

LMZ867-665-643>646-241100-
LAKE MICHIGAN

STATION/POSITION TIME  TEMP    WIND        PRES    WAVE
                       AIR SEA DIR/SP/G            HT/PER
                 (UTC) (F)     (DEG/KT/KT) (MB)    (FT/S)
S GREEN BAY BUOY 0930   72 69  180/  8/ 10 1017.5F
N MID LAKE BUOY  0850   70 67  190/ 10/ 12 1018.5F   1/ 3
NORTHPORT PIER   0940   72     170/  4/  9 1017.9R
KEWAUNEE LAKESHO 0930   64      CALM  /  2 1017.4S
SHEBOYGAN LAKESH 0900   71     200/  4/  4 1017.9F
PORT WASHINGTON  0930   68      CALM  /  1 1019.0S
ATWATER BUOY     0809   67 65  170/  2/  4 1018.4F
MILWAUKEE LAKESH 0930   69        CALM       N/A
S MID LAKE BUOY  0850   73 70  120/  8/  8 1018.6F   0
KENOSHA   LAKESH 0900   71     140/  2/  2 1018.3
$$

TC  - TEMPERATURE IN CELSIUS
VSB - VISIBILITY IN STATUTE MILES
WCI - WIND CHILL INDEX
HX  - HEAT INDEX




USA.gov is the U.S. government's official web portal to all federal, state and local government web resources and services.